Volver al catálogo

BREEZE-M R/B

ActivoMEO
NORAD 32375·ROCKET BODY·🇷🇺 Russia

Lanzado Dec 9, 2007 desde Baikonur Cosmodrome

Loading…

Próximos Pases (próximas 24 horas)

TLE

ActualizadoSource: Space-Track

Época: Sep 14, 2026, 12:17 UTC

1 32375U 07058C   26257.51221531 -.00000211  00000-0  00000-0 0  9997
2 32375  11.4236  24.6041 0251159 220.6341 335.9395  1.04430310 71402

Sigue BREEZE-M R/B en tiempo real con AllMySat

Download on the App Store